• Join FlightAware (Why Join?)
  • Login
  • US Flag 
04:21PM EDT


 

Airport Tracker/Info


-or-


 

Live Flight TrackerFlight Track Log ✈ EJA929 ✈ 14-Jun-2013 ✈ KOAK - KSMO

Flight Track Log - Related Links

Times and Time Zones

All times are in EDT time to prevent confusion due to time zone crossing. See the EJA929 flight status page for this flight to view local times or setup timezone preferences in your user account.

Time Position Orientation Groundspeed Altitude Reporting Facility
EDT Latitude Longitude Course Direction KTS MPH feet Rate Location/Type
02:51PM 37.7333 -122.2667 288° West 203 234 1,700  Level Northern Cal TRACON
02:52PM 37.7500 -122.3333 288° West 221 254 5,800 3,480 Climbing Northern Cal TRACON
02:53PM 37.7667 -122.4167 284° West 270 311 8,700 2,220 Climbing Northern Cal TRACON
02:55PM 37.5908 -122.4758 195° South 345 397 13,100 1,860 Climbing Oakland Center
02:56PM 37.5081 -122.3989 144° Southeast 377 434 14,900 1,740 Climbing Oakland Center
02:57PM 37.4281 -122.3103 139° Southeast 382 440 16,800 1,860 Climbing Oakland Center
02:58PM 37.3456 -122.2197 139° Southeast 389 448 18,800 1,920 Climbing Oakland Center
02:59PM 37.2617 -122.1281 139° Southeast 397 457 20,800 2,040 Climbing Oakland Center
03:00PM 37.1572 -122.0158 139° Southeast 409 471 23,100 1,980 Climbing Oakland Center
03:01PM 37.0669 -121.9172 139° Southeast 423 487 24,900 1,740 Climbing Oakland Center
03:02PM 36.9731 -121.8156 139° Southeast 439 505 26,700 1,620 Climbing Oakland Center
03:03PM 36.8739 -121.7181 142° Southeast 452 520 28,300 1,080 Climbing Oakland Center
03:04PM 36.7692 -121.6064 139° Southeast 481 554 29,000 300 Climbing Oakland Center
03:05PM 36.6639 -121.4931 139° Southeast 499 574 29,000  Level Oakland Center
03:06PM 36.5567 -121.3789 139° Southeast 507 583 29,000  Level Oakland Center
03:08PM 36.4500 -121.2658 140° Southeast 505 581 29,000  Level Oakland Center
03:09PM 36.3481 -121.1569 139° Southeast 486 559 29,000  Level Oakland Center
03:10PM 36.2308 -121.0347 140° Southeast 462 532 29,000  Level Oakland Center
03:11PM 36.1350 -120.9344 140° Southeast 453 521 29,000  Level Oakland Center
03:12PM 36.0403 -120.8342 139° Southeast 450 518 29,000  Level Oakland Center
03:13PM 35.9444 -120.7342 140° Southeast 450 518 29,000  Level Oakland Center
03:14PM 35.8497 -120.6378 140° Southeast 445 512 29,000  Level Oakland Center
03:15PM 35.7544 -120.5400 140° Southeast 446 513 29,000  Level Oakland Center
03:16PM 35.6542 -120.4367 140° Southeast 465 535 29,000 -120 Level Oakland Center
03:16PM 35.6103 -120.3947 142° Southeast 470 541 28,900 -960 Descending Los Angeles Center
03:17PM 35.5044 -120.2858 140° Southeast 495 570 27,700 -1,200 Descending Los Angeles Center
03:18PM 35.3964 -120.1725 139° Southeast 508 585 26,500 -1,260 Descending Los Angeles Center
03:19PM 35.2844 -120.0592 140° Southeast 500 575 25,200 -1,200 Descending Los Angeles Center
03:20PM 35.1792 -119.9533 141° Southeast 491 565 24,100 -600 Descending Los Angeles Center
03:21PM 35.0597 -119.8208 138° Southeast 484 557 24,000 -60 Descending Los Angeles Center
03:22PM 34.9694 -119.6978 132° Southeast 487 560 24,000  Level Los Angeles Center
03:23PM 34.8789 -119.5761 132° Southeast 484 557 24,000 -1,020 Level Los Angeles Center
03:24PM 34.7903 -119.4553 132° Southeast 480 552 21,900 -2,640 Descending Los Angeles Center
03:25PM 34.7047 -119.3406 132° Southeast 462 532 18,600 -3,300 Descending Los Angeles Center
03:26PM 34.6133 -119.2208 133° Southeast 437 503 15,200 -3,060 Descending Los Angeles Center
03:27PM 34.5422 -119.1258 132° Southeast 385 443 12,300 -2,040 Descending Los Angeles Center
03:28PM 34.4781 -119.0428 133° Southeast 324 373 11,000 -720 Descending Los Angeles Center
03:30PM 34.4236 -118.9697 132° Southeast 292 336 10,900 -1,020 Descending Los Angeles Center
03:31PM 34.3675 -118.8953 132° Southeast 297 342 9,000 -1,920 Descending Los Angeles Center
03:32PM 34.3256 -118.7919 116° Southeast 286 329 7,000 -1,020 Descending Los Angeles Center
03:33PM 34.2975 -118.7072 112° Southeast 273 314 7,000  Level Los Angeles Center
03:34PM 34.2667 -118.6158 112° Southeast 287 330 7,000 -240 Level Los Angeles Center
03:35PM 34.2356 -118.5267 113° Southeast 289 333 6,600 -780 Descending Los Angeles Center
03:36PM 34.2069 -118.4378 111° Southeast 284 327 5,400 -780 Descending Los Angeles Center
03:37PM 34.1781 -118.3567 113° Southeast 274 315 5,000 -780 Descending Los Angeles Center
03:38PM 34.1172 -118.3308 161° South 235 270 3,900 -1,200 Descending Los Angeles Center
03:39PM 34.0797 -118.3767 225° Southwest 206 237 2,600 -1,320 Descending Los Angeles Center
03:40PM 34.0450 -118.4175 224° Southwest 185 213 1,200 -1,200 Descending Los Angeles Center
03:41PM 34.0208 -118.4453 224° Southwest 145 167 200 -1,020 Descending Los Angeles Center
03:43PM 34.0158 -118.4513 225° Southwest  Level Estimated